Tracking 27122 objects as of 24-Mar-2023
HD Live streaming from Space Station
objects crossing your sky now

STARLINK-4027

Track STARLINK-4027 now!
10-day predictions
STARLINK-4027 is classified as:


NORAD ID: 52601
Int'l Code: 2022-052D
Perigee: 545.7 km
Apogee: 547.9 km
Inclination: 53.2 °
Period: 95.4 minutes
Semi major axis: 6917 km
RCS: Unknown
Launch date: May 14, 2022
Source: United States (US)
Launch site: AIR FORCE EASTERN TEST RANGE (AFETR)
Your satellite tracking list
Your tracking list is empty




NASA's NSSDC Master Catalog

Two Line Element Set (TLE):
1 52601U 22052D   23083.23143025  .00006505  00000-0  42615-3 0  9998
2 52601  53.2153  93.9738 0001569  79.9634 280.1535 15.08864900 47964
Source of the keplerian elements: AFSPC